CW3508 Weather Reports


Display with metric or nautical units.
time (UTC)temp
F
wind
direction
speed
MPH
gust
MPH
rain 1hr
in
rain 24hr
in
rain mn
in
humidity
%
barometer
mb
20260510200024 77 128 0.0 3.0 0.00 0.00 0.00 75 1013.2
20260510195526 77 169 1.0 5.0 0.00 0.00 0.00 75 1013.4
20260510195046 77 169 2.0 5.0 0.00 0.00 0.00 74 1013.4
20260510194543 77 289 1.0 3.0 0.00 0.00 0.00 77 1013.4
20260510194030 76 149 1.0 4.0 0.00 0.00 0.00 76 1013.3
20260510193531 76 160 1.0 3.0 0.00 0.00 0.00 77 1013.3
20260510193046 76 157 0.0 3.0 0.00 0.00 0.00 76 1013.3
20260510192530 76 166 0.0 3.0 0.00 0.00 0.00 76 1013.4
20260510192039 76 166 1.0 3.0 0.00 0.00 0.00 75 1013.4
20260510191533 76 166 0.0 4.0 0.00 0.00 0.00 75 1013.4
20260510191016 76 184 0.0 3.0 0.00 0.00 0.00 77 1013.5
20260510190518 76 162 2.0 4.0 0.00 0.00 0.00 75 1013.5
20260510190027 76 162 2.0 3.0 0.00 0.00 0.00 78 1013.5
20260510185518 76 188 1.0 3.0 0.00 0.00 0.00 78 1014.0
20260510185024 75 251 1.0 3.0 0.00 0.00 0.00 79 1014.0
20260510184531 75 167 0.0 3.0 0.00 0.00 0.00 81 1014.0
20260510184050 75 201 1.0 6.0 0.00 0.00 0.00 80 1014.0
20260510183547 75 174 2.0 6.0 0.00 0.00 0.00 79 1014.0
20260510183028 75 150 3.0 5.0 0.00 0.00 0.00 81 1014.0
20260510182540 74 173 1.0 4.0 0.00 0.00 0.00 79 1014.0
20260510182032 74 119 1.0 5.0 0.00 0.00 0.00 83 1014.0
20260510181533 73 222 2.0 5.0 0.00 0.00 0.00 83 1014.0
20260510181015 73 144 2.0 4.0 0.00 0.00 0.00 83 1014.2
20260510180535 73 136 2.0 4.0 0.00 0.00 0.00 84 1014.2
20260510180039 72 140 0.0 4.0 0.00 0.00 0.00 87 1014.2
20260510175533 72 182 2.0 4.0 0.00 0.00 0.00 88 1014.4
20260510175021 71 189 1.0 4.0 0.00 0.00 0.00 87 1014.4
20260510174524 70 184 2.0 4.0 0.00 0.00 0.00 88 1014.4
20260510174032 70 152 1.0 3.0 0.00 0.00 0.00 88 1014.6
20260510173530 70 169 0.0 2.0 0.00 0.00 0.00 88 1014.6
20260510173021 70 169 0.0 2.0 0.00 0.00 0.00 89 1014.6
20260510172527 69 169 0.0 2.0 0.00 0.00 0.00 89 1014.6
20260510172041 69 169 0.0 3.0 0.00 0.00 0.00 89 1014.6
20260510171526 69 169 1.0 3.0 0.00 0.00 0.00 90 1014.6
20260510171058 69 169 1.0 2.0 0.00 0.00 0.00 91 1014.9
20260510170539 69 169 0.0 3.0 0.00 0.00 0.00 91 1014.9
20260510170024 69 169 1.0 3.0 0.00 0.00 0.00 91 1014.9
20260510165518 68 169 1.0 2.0 0.00 0.00 0.00 92 1015.0
20260510165027 68 169 1.0 2.0 0.00 0.00 0.00 92 1015.0
20260510164526 68 169 0.0 0.0 0.00 0.00 0.00 93 1015.0
20260510164021 68 169 0.0 3.0 0.00 0.00 0.00 92 1014.8
20260510163523 68 169 1.0 3.0 0.00 0.00 0.00 92 1014.8
20260510163056 68 157 1.0 3.0 0.00 0.00 0.00 92 1014.8
20260510162550 67 157 0.0 3.0 0.00 0.00 0.00 93 1014.7
20260510162032 67 157 0.0 3.0 0.00 0.00 0.00 93 1014.7
20260510161518 67 157 0.0 2.0 0.00 0.00 0.00 94 1014.7
20260510161024 67 157 0.0 3.0 0.00 0.00 0.00 94 1014.7
20260510160539 67 157 0.0 3.0 0.00 0.00 0.00 95 1014.7
20260510160039 67 157 1.0 3.0 0.00 0.00 0.00 95 1014.7
20260510155538 67 156 0.0 1.0 0.00 0.00 0.00 95 1014.9
20260510155028 67 156 0.0 1.0 0.00 0.00 0.00 95 1014.9
20260510154529 66 157 0.0 1.0 0.00 0.00 0.00 96 1014.9
20260510154021 66 156 0.0 2.0 0.00 0.00 0.00 95 1014.9
20260510153533 66 156 0.0 3.0 0.00 0.00 0.00 96 1014.9
20260510153019 66 157 1.0 3.0 0.00 0.00 0.00 96 1014.9
20260510152547 66 155 0.0 0.0 0.00 0.00 0.00 96 1014.8
20260510152028 66 155 0.0 0.0 0.00 0.00 0.00 96 1014.8
20260510151519 66 155 0.0 0.0 0.00 0.00 0.00 97 1014.8
20260510151016 66 155 0.0 0.0 0.00 0.00 0.00 97 1014.7
20260510150514 66 155 0.0 0.0 0.00 0.00 0.00 97 1014.7
20260510150038 66 155 0.0 0.0 0.00 0.00 0.00 97 1014.7
20260510145537 66 155 0.0 0.0 0.00 0.00 0.00 97 1014.7
20260510145042 66 155 0.0 0.0 0.00 0.00 0.00 97 1014.7
20260510144544 66 155 0.0 0.0 0.00 0.00 0.00 97 1014.7
20260510144034 65 155 0.0 0.0 0.00 0.00 0.00 97 1014.7
20260510143606 65 155 0.0 0.0 0.00 0.00 0.00 97 1014.7
20260510143045 65 155 0.0 0.0 0.00 0.00 0.00 97 1014.7
20260510142531 65 155 0.0 0.0 0.00 0.00 0.00 97 1014.8
20260510142018 65 155 0.0 0.0 0.00 0.00 0.00 97 1014.8
20260510141517 65 155 0.0 0.0 0.00 0.00 0.00 97 1014.8
20260510141037 65 155 0.0 0.0 0.00 0.00 0.00 97 1014.6
20260510140552 65 155 0.0 0.0 0.00 0.00 0.00 97 1014.6
20260510140032 65 155 0.0 0.0 0.00 0.00 0.00 97 1014.6
20260510135530 65 155 0.0 0.0 0.00 0.00 0.00 97 1014.6
20260510135026 64 155 0.0 0.0 0.00 0.00 0.00 97 1014.6
20260510134526 64 155 0.0 0.0 0.00 0.00 0.00 97 1014.6
20260510134032 64 155 0.0 0.0 0.00 0.00 0.00 97 1014.5
20260510133534 64 155 0.0 1.0 0.00 0.00 0.00 97 1014.5
20260510133036 64 155 0.0 0.0 0.00 0.00 0.00 97 1014.5
20260510132546 65 155 0.0 0.0 0.00 0.00 0.00 97 1014.4
20260510132019 65 155 0.0 0.0 0.00 0.00 0.00 97 1014.4
20260510131526 65 155 0.0 0.0 0.00 0.00 0.00 97 1014.4
20260510131102 64 155 0.0 0.0 0.00 0.00 0.00 97 1014.3
20260510130530 64 155 0.0 0.0 0.00 0.00 0.00 97 1014.3
20260510130020 64 155 0.0 0.0 0.00 0.00 0.00 97 1014.3
20260510125532 64 155 0.0 0.0 0.00 0.00 0.00 97 1014.1
20260510125047 64 155 0.0 0.0 0.00 0.00 0.00 97 1014.1
20260510124534 64 155 0.0 0.0 0.00 0.00 0.00 97 1014.1
20260510124039 64 155 0.0 1.0 0.00 0.00 0.00 97 1014.0
20260510123526 64 155 0.0 1.0 0.00 0.00 0.00 97 1014.0
20260510123033 64 155 0.0 0.0 0.00 0.00 0.00 97 1014.0
20260510122533 64 155 0.0 0.0 0.00 0.00 0.00 97 1013.8
20260510122021 64 155 0.0 0.0 0.00 0.00 0.00 97 1013.8
20260510121538 64 155 0.0 1.0 0.00 0.00 0.00 97 1013.8
20260510121040 64 155 0.0 1.0 0.00 0.00 0.00 97 1013.4
20260510120532 64 155 0.0 0.0 0.00 0.00 0.00 97 1013.4
20260510120020 64 155 0.0 0.0 0.00 0.00 0.00 97 1013.4
20260510115527 64 155 0.0 0.0 0.00 0.00 0.00 97 1013.3
20260510115033 64 155 0.0 0.0 0.00 0.00 0.00 97 1013.3
20260510114537 64 155 0.0 0.0 0.00 0.00 0.00 97 1013.3
20260510114035 64 155 0.0 0.0 0.00 0.00 0.00 97 1012.9
20260510113533 64 155 0.0 0.0 0.00 0.00 0.00 97 1012.9
20260510113051 64 155 0.0 0.0 0.00 0.00 0.00 97 1012.9
20260510112522 64 155 0.0 0.0 0.00 0.00 0.00 97 1012.4
20260510112023 64 155 0.0 0.0 0.00 0.00 0.00 97 1012.4
20260510111528 64 155 0.0 0.0 0.00 0.00 0.00 97 1012.4
20260510110542 64 155 0.0 0.0 0.00 0.00 0.00 97 1012.3
20260510110042 64 155 0.0 0.0 0.00 0.00 0.00 97 1012.3
20260510105554 64 155 0.0 0.0 0.00 0.00 0.00 97 1012.0
20260510105054 64 155 0.0 0.0 0.00 0.00 0.00 97 1012.0
20260510104535 64 155 0.0 0.0 0.00 0.00 0.00 97 1012.0
20260510104021 64 155 0.0 0.0 0.00 0.00 0.00 97 1011.9
20260510103535 64 155 0.0 0.0 0.00 0.00 0.00 97 1011.9
20260510103018 64 155 0.0 1.0 0.00 0.00 0.00 97 1011.9
20260510102527 64 155 0.0 1.0 0.00 0.00 0.00 97 1011.7
20260510102101 64 155 0.0 0.0 0.00 0.00 0.00 97 1011.7
20260510101533 64 155 0.0 0.0 0.00 0.00 0.00 97 1011.7
20260510101033 64 155 0.0 0.0 0.00 0.00 0.00 97 1011.5
20260510100523 64 155 0.0 0.0 0.00 0.00 0.00 97 1011.5
20260510100038 64 155 0.0 0.0 0.00 0.01 0.00 97 1011.5
20260510095517 64 155 0.0 0.0 0.00 0.01 0.00 97 1011.3
20260510095021 64 155 0.0 0.0 0.00 0.01 0.00 96 1011.3
20260510094538 64 155 0.0 1.0 0.00 0.01 0.00 96 1011.3
20260510094032 64 155 0.0 1.0 0.00 0.01 0.00 96 1011.1
20260510093534 64 155 0.0 1.0 0.00 0.01 0.00 97 1011.1
20260510093015 64 155 0.0 0.0 0.00 0.01 0.00 97 1011.1
20260510092535 64 155 0.0 0.0 0.00 0.01 0.00 97 1010.8
20260510092018 64 155 0.0 0.0 0.00 0.01 0.00 97 1010.8
20260510091518 64 155 0.0 1.0 0.00 0.01 0.00 97 1010.8
20260510091034 64 155 0.0 0.0 0.00 0.01 0.00 97 1010.7
20260510090520 64 155 0.0 0.0 0.00 0.01 0.00 97 1010.7
20260510090027 64 155 0.0 0.0 0.00 0.03 0.00 97 1010.7
20260510085533 64 155 0.0 0.0 0.00 0.03 0.00 97 1010.5
20260510085049 64 155 0.0 0.0 0.00 0.03 0.00 97 1010.5
20260510084534 64 155 0.0 1.0 0.00 0.03 0.00 96 1010.5
20260510084018 64 155 0.0 1.0 0.00 0.03 0.00 96 1010.3
20260510083534 64 155 0.0 0.0 0.00 0.03 0.00 96 1010.3
20260510083035 64 155 0.0 0.0 0.00 0.03 0.00 96 1010.3
20260510082535 64 155 0.0 1.0 0.00 0.03 0.00 96 1010.4
20260510081518 64 155 0.0 1.0 0.00 0.03 0.00 96 1010.4
20260510081016 64 155 0.0 1.0 0.00 0.03 0.00 96 1010.3
20260510080533 64 155 0.0 0.0 0.00 0.03 0.00 96 1010.3
20260510080021 64 155 0.0 0.0 0.00 0.03 0.00 96 1010.3
20260510075529 64 155 0.0 0.0 0.00 0.03 0.00 96 1010.3
20260510075037 64 155 0.0 0.0 0.00 0.03 0.00 96 1010.3
20260510074522 64 155 0.0 0.0 0.00 0.03 0.00 96 1010.3
20260510074028 64 155 0.0 0.0 0.00 0.03 0.00 96 1010.3
20260510073532 64 155 0.0 0.0 0.00 0.03 0.00 96 1010.3
20260510072532 64 155 0.0 1.0 0.00 0.03 0.00 96 1010.4
20260510072043 64 155 0.0 0.0 0.00 0.03 0.00 96 1010.4
20260510071524 64 155 0.0 0.0 0.00 0.03 0.00 96 1010.4
20260510071019 64 155 0.0 0.0 0.00 0.03 0.00 96 1010.4
20260510070527 64 155 0.0 0.0 0.00 0.03 0.00 96 1010.4
20260510070052 64 155 0.0 0.0 0.00 0.03 0.00 96 1010.4
20260510065519 64 155 0.0 0.0 0.00 0.03 0.00 96 1010.6
20260510065038 64 155 0.0 0.0 0.00 0.03 0.00 96 1010.6
20260510064541 63 155 0.0 0.0 0.00 0.03 0.00 96 1010.6
20260510064040 63 155 0.0 0.0 0.00 0.03 0.00 96 1010.8
20260510063526 63 155 0.0 0.0 0.00 0.03 0.00 96 1010.8
20260510063028 63 155 0.0 0.0 0.00 0.03 0.00 96 1010.8
20260510062519 63 155 0.0 0.0 0.00 0.03 0.00 96 1010.8
20260510062034 63 155 0.0 0.0 0.00 0.03 0.00 96 1010.8
20260510061545 63 155 0.0 0.0 0.00 0.03 0.00 96 1010.8
20260510061023 63 155 0.0 0.0 0.00 0.03 0.00 96 1010.8
20260510060519 63 155 0.0 0.0 0.00 0.03 0.00 96 1010.8
20260510060018 63 155 0.0 0.0 0.00 0.03 0.00 96 1010.8
20260510055516 63 155 0.0 0.0 0.00 0.03 0.00 96 1010.8
20260510055015 63 155 0.0 0.0 0.00 0.03 0.00 96 1010.8
20260510054538 63 155 0.0 0.0 0.00 0.03 0.00 95 1010.8
20260510054019 63 155 0.0 0.0 0.00 0.03 0.00 95 1010.9
20260510053553 63 155 0.0 0.0 0.00 0.03 0.00 95 1010.9
20260510053017 63 155 0.0 0.0 0.00 0.03 0.00 95 1010.9
20260510052519 63 155 0.0 0.0 0.00 0.03 0.00 95 1010.9
20260510052026 63 155 0.0 0.0 0.00 0.03 0.00 95 1010.9
20260510051533 63 155 0.0 0.0 0.00 0.03 0.00 95 1010.9
20260510051031 63 155 0.0 0.0 0.00 0.03 0.00 95 1011.0
20260510050538 64 155 0.0 0.0 0.00 0.03 0.00 95 1011.0
20260510050054 64 155 0.0 0.0 0.00 0.03 0.03 95 1011.0
20260510045533 64 155 0.0 0.0 0.00 0.03 0.03 95 1011.0
20260510045034 64 155 0.0 0.0 0.00 0.03 0.03 95 1011.0
20260510044530 64 155 0.0 0.0 0.00 0.03 0.03 95 1011.0
20260510044027 64 155 0.0 0.0 0.00 0.03 0.03 95 1010.9
20260510043522 64 155 0.0 0.0 0.00 0.03 0.03 94 1010.9
20260510043052 64 155 0.0 0.0 0.00 0.03 0.03 95 1010.9
20260510042518 64 155 0.0 0.0 0.00 0.03 0.03 95 1011.3
20260510042038 64 155 0.0 0.0 0.00 0.03 0.03 95 1011.3
20260510041542 64 155 0.0 0.0 0.00 0.03 0.03 94 1011.3
20260510041045 64 155 0.0 0.0 0.00 0.03 0.03 94 1011.2
20260510040518 65 155 0.0 0.0 0.00 0.03 0.03 94 1011.2
20260510040035 65 155 0.0 0.0 0.00 0.03 0.03 94 1011.2
20260510035535 65 155 0.0 0.0 0.00 0.03 0.03 94 1011.3
20260510035033 65 155 0.0 0.0 0.00 0.03 0.03 94 1011.3
20260510034520 65 155 0.0 0.0 0.00 0.03 0.03 94 1011.3
20260510034031 65 155 0.0 0.0 0.00 0.03 0.03 94 1011.2
20260510033523 65 155 0.0 0.0 0.00 0.03 0.03 94 1011.2
20260510033042 65 155 0.0 0.0 0.00 0.03 0.03 94 1011.2
20260510032524 65 155 0.0 0.0 0.00 0.03 0.03 94 1011.3
20260510032027 65 155 0.0 0.0 0.00 0.03 0.03 94 1011.3
20260510031538 66 155 0.0 0.0 0.00 0.03 0.03 94 1011.3
20260510031026 66 155 0.0 0.0 0.00 0.03 0.03 94 1010.9
20260510030530 66 155 0.0 0.0 0.00 0.03 0.03 94 1010.9
20260510030030 66 155 0.0 0.0 0.00 0.03 0.03 94 1010.9
20260510025524 66 155 0.0 0.0 0.00 0.03 0.03 94 1011.1
20260510025031 66 155 0.0 0.0 0.00 0.03 0.03 94 1011.1
20260510024524 66 155 0.0 0.0 0.00 0.03 0.03 93 1011.1
20260510023532 66 155 0.0 0.0 0.00 0.03 0.03 93 1010.9
20260510023016 66 155 0.0 0.0 0.00 0.03 0.03 93 1010.9
20260510022520 67 155 0.0 0.0 0.00 0.03 0.03 93 1010.8
20260510022034 67 155 0.0 0.0 0.00 0.03 0.03 93 1010.8
20260510021538 67 155 0.0 0.0 0.00 0.03 0.03 93 1010.8
20260510021048 67 155 0.0 0.0 0.00 0.03 0.03 93 1010.5
20260510020547 67 155 0.0 0.0 0.00 0.03 0.03 92 1010.5
20260510020045 67 155 0.0 0.0 0.00 0.03 0.03 92 1010.5
20260510015558 67 155 0.0 0.0 0.00 0.03 0.03 92 1010.3
20260510014532 67 155 0.0 0.0 0.00 0.03 0.03 92 1010.3
20260510014051 67 155 0.0 0.0 0.00 0.03 0.03 92 1009.8
20260510013528 67 155 0.0 0.0 0.00 0.03 0.03 92 1009.8
20260510013021 68 155 0.0 0.0 0.00 0.03 0.03 91 1009.8
20260510012524 68 155 0.0 0.0 0.00 0.03 0.03 91 1009.7
20260510012056 68 155 0.0 0.0 0.00 0.03 0.03 91 1009.7
20260510011524 68 155 0.0 0.0 0.00 0.03 0.03 91 1009.7
20260510011021 68 155 0.0 0.0 0.00 0.03 0.03 91 1009.6
20260510010552 68 155 0.0 0.0 0.00 0.03 0.03 91 1009.6
20260510010034 68 155 0.0 0.0 0.00 0.03 0.03 91 1009.6
20260510005550 68 155 0.0 0.0 0.00 0.03 0.03 91 1009.2
20260510005059 69 155 0.0 0.0 0.00 0.03 0.03 91 1009.2
20260510004537 69 155 0.0 0.0 0.00 0.03 0.03 91 1009.2
20260510004020 69 155 0.0 0.0 0.00 0.03 0.03 91 1009.3
20260510003533 69 155 0.0 0.0 0.00 0.03 0.03 91 1009.3
20260510003018 69 155 0.0 0.0 0.00 0.03 0.03 90 1009.3
20260510002024 69 155 0.0 0.0 0.00 0.03 0.03 90 1009.2
20260510001530 69 155 0.0 0.0 0.00 0.03 0.03 90 1009.2
20260510001035 70 155 0.0 0.0 0.00 0.03 0.03 89 1009.2
20260510000518 70 155 0.0 1.0 0.00 0.03 0.03 89 1009.2
20260510000028 70 155 0.0 0.0 0.00 0.03 0.03 88 1009.2
20260509235539 70 155 0.0 0.0 0.00 0.03 0.03 88 1008.6
20260509235023 70 155 0.0 0.0 0.00 0.03 0.03 88 1008.6
20260509234558 71 155 0.0 0.0 0.00 0.03 0.03 87 1008.6
20260509234042 71 155 0.0 0.0 0.00 0.03 0.03 87 1008.6
20260509233543 71 155 0.0 0.0 0.00 0.03 0.03 87 1008.6
20260509233039 71 155 0.0 0.0 0.00 0.03 0.03 87 1008.6
20260509232550 71 155 0.0 0.0 0.00 0.03 0.03 87 1008.4
20260509232037 72 155 0.0 0.0 0.00 0.03 0.03 87 1008.4
20260509231521 72 155 0.0 0.0 0.00 0.03 0.03 87 1008.4
20260509231054 72 155 0.0 0.0 0.00 0.03 0.03 86 1008.4
20260509230516 72 155 0.0 0.0 0.00 0.03 0.03 86 1008.4
20260509230022 72 155 0.0 0.0 0.00 0.03 0.03 86 1008.4
20260509225520 72 155 0.0 0.0 0.00 0.03 0.03 86 1008.2
20260509225026 73 155 0.0 0.0 0.00 0.03 0.03 85 1008.2
20260509224558 73 155 0.0 0.0 0.00 0.03 0.03 85 1008.2
20260509224023 73 155 0.0 0.0 0.00 0.03 0.03 85 1008.1
20260509223555 73 155 0.0 0.0 0.00 0.03 0.03 85 1008.1
20260509223025 73 155 0.0 0.0 0.00 0.03 0.03 85 1008.1
20260509222536 73 155 0.0 0.0 0.00 0.03 0.03 84 1008.1
20260509222025 73 155 0.0 0.0 0.00 0.03 0.03 84 1008.1
20260509221528 73 155 0.0 0.0 0.00 0.03 0.03 84 1008.1
20260509221021 73 155 0.0 0.0 0.00 0.03 0.03 84 1008.1
20260509220516 73 155 0.0 1.0 0.00 0.03 0.03 83 1008.1
20260509220014 73 155 0.0 2.0 0.00 0.03 0.03 83 1008.1
20260509215534 73 155 0.0 2.0 0.00 0.03 0.03 81 1007.9
20260509215028 73 155 0.0 2.0 0.00 0.03 0.03 82 1007.9
20260509214529 73 155 0.0 2.0 0.00 0.03 0.03 82 1007.9
20260509214032 73 155 0.0 1.0 0.00 0.03 0.03 83 1007.8
20260509213522 73 155 0.0 1.0 0.00 0.03 0.03 83 1007.8
20260509213044 73 155 0.0 1.0 0.00 0.03 0.03 82 1007.8
20260509212524 73 155 0.0 1.0 0.00 0.03 0.03 82 1007.8
20260509212024 73 155 0.0 2.0 0.00 0.03 0.03 82 1007.8
20260509211517 73 155 1.0 3.0 0.00 0.03 0.03 80 1007.8
20260509211030 73 155 1.0 3.0 0.00 0.03 0.03 81 1007.8
20260509210529 73 154 1.0 2.0 0.00 0.03 0.03 80 1007.8
20260509210022 74 154 0.0 2.0 0.00 0.03 0.03 82 1007.8
20260509205531 74 154 0.0 3.0 0.00 0.03 0.03 81 1007.6
20260509205044 73 154 1.0 3.0 0.00 0.03 0.03 80 1007.6
20260509204546 74 154 0.0 2.0 0.00 0.03 0.03 80 1007.6
20260509204034 74 153 1.0 3.0 0.00 0.03 0.03 79 1007.9
20260509203536 74 153 1.0 3.0 0.00 0.03 0.03 79 1007.9
20260509203026 74 153 0.0 2.0 0.00 0.03 0.03 80 1007.9
20260509202541 74 153 0.0 2.0 0.00 0.03 0.03 79 1007.8
20260509202043 74 153 0.0 2.0 0.00 0.03 0.03 79 1007.8
20260509201529 74 153 0.0 1.0 0.00 0.03 0.03 81 1007.8
20260509201036 74 153 0.0 2.0 0.00 0.03 0.03 80 1007.9
20260509200530 74 157 1.0 2.0 0.00 0.03 0.03 81 1007.9